Location: Driftpile
(55.3500°N, 115.7667°W)
Time: 01:44:06
(UTC+00:00)

ISS - Pass Details

Date: 02 December 2021
Orbit: 413 x 422 km, 51.6° (Epoch: 24 January)

Event Time Altitude Azimuth Distance (km) Brightness Sun altitude
Rises 01:18:40 0° 269° (W) 2,386 1.7 -16.0°
Reaches altitude 10° 01:20:51 10° 261° (W) 1,518 0.4 -16.3°
Maximum altitude 01:24:03 39° 191° (SSW) 653 -2.6 -16.8°
Enters shadow 01:25:36 24° 138° (SE) 927 -2.3 -17.0°
